TIME,DELAY(SENSOR),PRES,T(CTD),SAL,OXYGEN,RAWTEMP,T(OPTODE),TCPHASE,FLUOR,BETA(BETA700),BETA(BETA412),BETA(BETA440),CDOM,C(CSC),ED(ED411.90),ED(ED443.80),ED(ED489.40),ED(ED554.70),LU(LU412.20),LU(LU443.80),LU(LU489.40),LU(LU555.00),COMP,TILTX,TILTX(TILTY),CHECK
1361463769,5806,497.6199951171875000,16.2593002319335940,36.2060012817382800,193.7779998779297000,212.8166961669922000,16.2620906829834000,33.7742500305175800,71,250,96,80,70,11801,2146959972,2147515812,2147273874,2147469595,2147085357,2146949878,2147662336,2147123044,1599,-2,8,12115
1361463896,5805,486.2500000000000000,16.4517993927001950,36.2408981323242200,194.1139068603515600,206.5278930664062500,16.4515991210937500,33.6637687683105500,70,247,97,80,70,11801,2146961179,2147514779,2147275072,2147467456,2147086153,2146951241,2147657572,2147128091,945,-1,8,10760
1361464013,5806,475.7099914550781000,16.6327991485595700,36.2770004272460940,197.3694000244140600,200.4638061523437500,16.6343593597412100,33.3798599243164060,71,245,96,80,69,11803,2146955181,2147515318,2147273526,2147465755,2147086134,2146953600,2147659821,2147132288,545,-1,8,48145
1361464128,5808,465.3399963378906000,16.8577995300292970,36.3227996826171900,204.0733947753906200,193.1405944824218800,16.8551006317138670,32.8823814392089840,71,252,96,79,70,11805,2146959058,2147516891,2147273289,2147465718,2147086217,2146955638,2147656713,2147127186,3573,-1,8,64014
1361464255,5803,453.8999938964844000,16.9787006378173830,36.3504981994628900,210.5032958984375000,189.2575988769531200,16.9721698760986330,32.4645118713378900,71,264,95,80,69,11805,2146959131,2147512914,2147273133,2147463460,2147086016,2146949787,2147658596,2147126454,2838,-2,8,22322
1361464372,5806,443.5000000000000000,17.0111999511718750,36.3441009521484400,207.0503997802734400,188.0137939453125000,17.0096702575683600,32.6405601501464840,71,255,97,81,70,11802,2146960740,2147514852,2147271881,2147459794,2147079862,2146955428,2147656173,2147132105,3155,-1,8,56079
1361464499,5807,432.4400024414062500,17.2579002380371100,36.3969001770019500,208.4969940185547000,179.9107055664062500,17.2540302276611330,32.4459800720214840,74,264,96,80,68,11808,2146959094,2147513645,2147270098,2147463149,2147082953,2146952649,2147653522,2147125202,3399,-1,8,64385
1361464628,5806,421.5700073242187500,17.4578990936279300,36.4369010925293000,214.9653015136718800,173.5368041992187500,17.4462890625000000,32.0030288696289060,70,251,96,80,68,11805,2146957531,2147513938,2147271908,2147460937,2147087186,2146957394,2147653193,2147128064,2978,-1,7,39696
1361464767,5802,410.1000061035156000,17.6077995300292970,36.4705009460449200,221.0868072509765600,168.5075073242187500,17.5980491638183600,31.6099300384521500,67,239,95,80,68,11803,2146955483,2147513856,2147268132,2147462317,2147083648,2146955620,2147649481,2147129280,2138,-1,8,20059
1361464894,5805,399.7000122070312500,17.6634998321533200,36.4786987304687500,221.9519042968750000,166.4398040771484400,17.6604404449462900,31.5365791320800780,72,238,96,79,68,11805,2146957988,2147513782,2147270884,2147456923,2147080850,2146956150,2147651520,2147127058,1218,-1,8,44974
1361465035,5803,388.1799926757812500,17.7749996185302730,36.5000991821289060,223.9019012451172000,162.6976013183593800,17.7733993530273440,31.3853302001953120,71,250,95,80,68,11806,2146959689,2147514587,2147272722,2147460370,2147073005,2146954779,2147655652,2147125403,3399,-1,8,48568
1361465162,5805,377.6400146484375000,17.8435001373291000,36.5124015808105500,224.7030029296875000,160.5222015380859400,17.8390693664550780,31.3148002624511720,70,273,96,80,67,11801,2146961115,2147514230,2147268169,2147456530,2147074642,2146950793,2147654784,2147125942,2878,-1,8,33091
1361465291,5805,366.8999938964844000,17.9248008728027340,36.5247993469238300,225.3316040039062500,157.8822937011718800,17.9187698364257800,31.2473602294921880,73,264,98,79,68,11802,2146959021,2147515757,2147269202,2147457737,2147079890,2146953106,2147654244,2147126226,1851,-2,8,64464
1361465430,5803,355.3299865722656000,17.9790992736816400,36.5320014953613300,224.9656066894531200,156.0379028320312500,17.9744701385498050,31.2408905029296880,71,246,96,80,67,11803,2146958198,2147514294,2147268937,2147456548,2147081883,2146954358,2147653476,2147126208,1140,-1,8,62644
1361465559,5805,344.8399963378906000,18.0326995849609380,36.5351982116699200,222.7268981933593800,154.2507934570312500,18.0284404754638670,31.3309402465820300,71,251,96,79,67,11801,2146958272,2147515017,2147268406,2147454811,2147077659,2146962944,2147653769,2147127689,3495,-1,8,8947
1361465698,5802,334.0100097656250000,18.1072998046875000,36.5466003417968750,223.1356964111328000,151.7536926269531200,18.1038608551025400,31.2765293121337900,70,249,96,80,68,11800,2146955309,2147513728,2147268982,2147454162,2147082285,2146960850,2147651126,2147126198,2296,-1,8,50163
1361465849,5804,322.8999938964844000,18.1872005462646500,36.5583000183105500,223.4257049560547000,149.1517028808593800,18.1824703216552730,31.2265605926513670,69,258,96,80,68,11798,2146960512,2147514633,2147267465,2147456073,2147076498,2146956763,2147651949,2147127232,1609,-1,8,8210
1361465986,5808,311.4200134277344000,18.2276992797851560,36.5584983825683600,221.4492034912109400,147.8348999023437500,18.2222499847412100,31.3100395202636720,72,249,95,81,68,11795,2146958774,2147515062,2147269641,2147457005,2147079250,2146960777,2147655104,2147126043,1685,-1,8,59980
1361466113,5806,299.7399902343750000,18.3090000152587900,36.5623016357421900,217.6819000244140600,145.1638031005859400,18.3029708862304700,31.4704494476318360,71,257,96,80,67,11793,2146957147,2147515108,2147268745,2147455350,2147076169,2146956534,2147661238,2147129965,484,-1,8,47475
1361466230,5806,289.2900085449219000,18.3840999603271500,36.5648994445800800,214.0410003662109400,142.6849975585937500,18.3778800964355470,31.6304893493652340,73,255,96,80,69,11793,2146957522,2147514422,2147267913,2147454025,2147084726,2146956635,2147663140,2147127771,2809,-1,8,40840
1361466357,5807,277.9100036621094000,18.3985996246337900,36.5532989501953100,205.0518951416015600,142.1000061035156200,18.3955593109130860,32.1180686950683600,72,248,96,81,69,11792,2146958820,2147515794,2147268269,2147453860,2147080475,2146963949,2147662756,2147128411,1843,-1,8,7970
1361466472,5803,267.4100036621094000,18.5443000793457030,36.5760993957519500,203.7570037841797000,136.6112060546875000,18.5615100860595700,32.1159782409668000,72,260,96,80,69,11792,2146961133,2147513828,2147268672,2147455625,2147080082,2146961764,2147671533,2147131309,1096,-1,8,61048
1361466589,5808,256.1400146484375000,18.7726993560791000,36.6111984252929700,209.9273986816406200,129.9658966064453000,18.7625102996826170,31.6811408996582030,72,251,95,81,68,11795,2146958208,2147513581,2147268470,2147450989,2147083693,2146967753,2147675894,2147127405,65,-1,8,19194
1361466704,5808,245.0200042724609400,18.9242000579834000,36.6218986511230500,210.2946014404297000,124.7711029052734400,18.9197101593017580,31.5908908843994140,72,246,95,82,69,11793,2146959515,2147515099,2147266843,2147451236,2147084342,2146973979,2147684918,2147130843,2638,-1,8,10746
1361466819,5806,233.9100036621093800,19.1769008636474600,36.6459999084472660,213.4295043945312500,116.1748962402343800,19.1800098419189450,31.3055992126464840,71,236,95,80,68,11792,2146954212,2147513453,2147267163,2147450331,2147085065,2146976402,2147702180,2147131529,1965,-1,9,2632
1361466936,5806,222.5800018310547000,19.3155994415283200,36.6575012207031250,217.1495971679687500,111.7232971191406200,19.3148899078369140,31.0488605499267580,70,272,95,79,68,11793,2146960429,2147516790,2147267392,2147451684,2147085156,2146992018,2147721325,2147132818,1361,-1,9,57760
1361467063,5805,210.5700073242187500,19.4918994903564450,36.6500015258789060,216.2776947021484400,105.9623031616211000,19.4895191192626950,31.0178508758544920,71,253,95,81,68,11790,2146957238,2147513910,2147267602,2147450706,2147086528,2147012662,2147755520,2147135012,1124,-1,9,53625
1361467192,5805,199.1499938964843800,19.7280998229980470,36.6601982116699200,218.5453033447265600,98.2792129516601600,19.7225894927978500,30.7975902557373050,70,241,98,81,68,11791,2146957568,2147512749,2147269458,2147448219,2147090322,2147037641,2147800502,2147136676,197,-2,8,10771
1361467247,5805,194.5500030517578000,19.8146991729736330,36.6707992553710940,217.5744934082031200,95.4079513549804700,19.8097400665283200,30.8098106384277340,70,250,96,81,68,11789,2146958061,2147517696,2147269156,2147446985,2147094153,2147055478,2147816749,2147139200,3016,-1,8,40938
1361467302,5804,189.9600067138672000,19.9083003997802730,36.6727981567382800,217.8684997558593800,92.5330505371093800,19.8970298767089840,30.7562904357910160,68,253,96,81,66,11786,2146959744,2147518345,2147269970,2147445860,2147092278,2147064448,2147838893,2147139264,2860,-1,8,46343
1361467357,5806,185.5200042724609400,19.9801998138427730,36.6685981750488300,222.2055053710937500,90.0808486938476600,19.9715003967285160,30.5016899108886720,69,251,94,80,67,11787,2146957586,2147516278,2147271689,2147448896,2147096978,2147080429,2147872182,2147142948,2197,-1,8,7130
1361467412,5805,181.3200073242187500,20.0177993774414060,36.6722984313964840,225.1414031982422000,88.7688980102539000,20.0113601684570300,30.3370609283447270,69,260,96,81,68,11793,2146959762,2147517769,2147274450,2147449133,2147099620,2147100315,2147900498,2147141257,2070,-1,9,24060
1361467467,5802,177.2299957275390600,20.1499996185302730,36.6833992004394500,225.1654968261718800,84.3723602294921900,20.1449604034423830,30.2783393859863280,70,254,96,80,68,11788,2146959177,2147516278,2147274651,2147446025,2147105408,2147131145,2147943862,2147147757,2167,-1,8,52461
1361467543,5804,172.1900024414062500,20.3304996490478500,36.6906013488769500,226.1743011474609400,78.3122787475586000,20.3292293548584000,30.1492195129394530,70,262,96,80,68,11785,2146957924,2147521124,2147272996,2147445056,2147109540,2147139291,2147961819,2147146962,2974,-1,8,37383
1361467610,5802,168.6999969482422000,20.4437999725341800,36.6958999633789060,229.0388946533203000,74.5056304931640600,20.4450492858886720,29.9591808319091800,72,275,96,81,67,11786,2146957942,2147521005,2147278582,2147446354,2147112649,2147162907,2148000118,2147150518,144,-2,9,22765
1361467701,5803,164.4400024414062500,20.5244007110595700,36.7010002136230500,230.8222045898437500,72.2099990844726600,20.5149192810058600,29.8431205749511720,71,256,95,80,67,11783,2146955657,2147521993,2147276306,2147444278,2147119926,2147187931,2148018185,2147154816,3413,-1,8,1267
1361467792,5801,160.2899932861328000,20.6116008758544920,36.7023010253906250,231.5314941406250000,68.4142684936523400,20.6305007934570300,29.7599792480468750,72,261,96,80,66,11782,2146957961,2147519259,2147278756,2147444205,2147126409,2147208832,2148050642,2147152932,3485,-2,8,36846
1361467885,5808,156.8200073242187500,20.9358005523681640,36.7141990661621100,233.6204071044922000,58.9992599487304700,20.9174308776855470,29.5392208099365230,73,259,97,82,67,11775,2146959277,2147520758,2147280219,2147438317,2147140480,2147276681,2148142701,2147161325,2675,-1,9,29107
1361468012,5803,152.8500061035156200,20.9799003601074220,36.7154998779296900,235.5115966796875000,57.1605491638183600,20.9735107421875000,29.4267997741699220,74,260,95,83,66,11774,2146959963,2147522002,2147285165,2147441792,2147159405,2147334985,2148222985,2147167149,2942,-1,9,20163
1361468127,5805,148.8300018310547000,21.0830993652343750,36.7145996093750000,236.9320068359375000,54.0540390014648440,21.0682907104492200,29.3206806182861330,74,263,97,82,66,11772,2146960338,2147523291,2147280987,2147440987,2147168064,2147352265,2148245504,2147167853,233,-2,9,19629
1361468227,5805,144.7500000000000000,21.2919006347656250,36.7140007019043000,238.2277984619140600,46.8605995178222660,21.2879390716552730,29.1690101623535160,73,257,96,82,67,11768,2146962496,2147527826,2147288265,2147442441,2147194742,2147436763,2148364022,2147177252,161,-1,8,44385
1361468318,5806,140.4600067138672000,21.4146003723144530,36.7150993347168000,238.7068939208984400,42.2321586608886700,21.4293804168701170,29.0883407592773440,75,265,96,81,65,11767,2146960676,2147531949,2147292827,2147438555,2147226221,2147528621,2148487689,2147186596,813,-1,9,51567
1361468409,5805,136.5099945068359400,21.6023006439209000,36.7067985534668000,239.0422058105468800,37.0117607116699200,21.5890407562255860,29.0066108703613280,73,265,97,82,65,11761,2146964544,2147532388,2147299108,2147440228,2147267913,2147649609,2148648356,2147196891,423,-2,8,61223
1361468502,5810,133.0399932861328000,21.6986007690429700,36.6968002319335940,239.4738006591797000,33.8947296142578100,21.6844291687011720,28.9474296569824220,74,249,99,83,64,11757,2146965257,2147535652,2147298852,2147437723,2147302317,2147726336,2148737901,2147205824,2667,-2,9,65113
1361468629,5808,129.2200012207031200,21.7616996765136720,36.6941986083984400,239.0298004150390600,31.6170005798339840,21.7541694641113280,28.9390201568603500,75,258,97,82,64,11755,2146965266,2147536576,2147306084,2147436269,2147352448,2147840832,2148875044,2147214253,1996,-2,9,8331
1361468816,5805,124.2900009155273400,21.9067001342773440,36.6741981506347660,239.5547943115234400,26.9028091430664060,21.8985805511474600,28.8555297851562500,75,265,99,84,64,11747,2146967817,2147542793,2147307163,2147434194,2147410779,2147928950,2148940077,2147225728,2600,-1,8,54917
1361468907,5807,120.7099990844726600,22.0111007690429700,36.6685981750488300,241.5955963134765600,23.6082592010498050,21.9995803833007800,28.7217292785644530,75,267,99,83,63,11741,2146971931,2147549074,2147322742,2147436882,2147521627,2148180214,2149260635,2147243026,3575,-2,9,26346
1361469010,5807,116.6500015258789000,22.0200996398925780,36.6484985351562500,245.0464019775390600,23.0709800720214840,22.0160503387451170,28.5609493255615230,78,271,101,83,62,11723,2146978386,2147565650,2147346605,2147432905,2147706459,2148597321,2149792182,2147281664,494,-2,9,28757
1361469125,5806,111.5699996948242200,22.0342998504638670,36.6357002258300800,247.5565032958984400,22.5151195526123050,22.0331001281738280,28.4436607360839840,77,269,101,87,62,11710,2146987190,2147576091,2147359003,2147434651,2147873298,2148874285,2150093275,2147307812,751,-1,8,36957
1361469204,5803,107.0500030517578100,22.0387001037597660,36.6254997253418000,249.2324066162109400,22.4374294281005860,22.0354804992675780,28.3695697784423830,79,277,102,86,62,11696,2146997348,2147596022,2147378678,2147437760,2148153956,2149399360,2150732333,2147359826,1461,-2,9,4796
1361469271,5805,103.1100006103515600,22.0279006958007800,36.6156997680664060,250.1932983398437500,22.8270797729492200,22.0235290527343750,28.3330001831054700,80,288,102,86,61,11687,2147006354,2147598427,2147388845,2147438820,2148323017,2149654418,2150990381,2147379986,1960,-1,9,13484
1361469338,5805,98.9899978637695300,22.0188999176025400,36.6083984375000000,250.8034973144531200,23.0856399536132800,22.0156002044677730,28.3099708557128900,80,269,104,86,62,11675,2147008786,2147604946,2147390528,2147436086,2148433700,2149740662,2151024219,2147389961,2229,-2,9,44309
1361469393,5804,95.7099990844726600,22.0189990997314450,36.6069984436035160,250.9510955810547000,23.0661697387695300,22.0161991119384770,28.3033294677734380,81,284,102,87,62,11665,2147031643,2147644096,2147451456,2147440246,2149070820,2150994048,2152584118,2147509778,2033,-2,9,15687
1361469451,5802,92.2200012207031200,22.0258998870849600,36.6052017211914060,251.1725006103515600,22.8543205261230470,22.0226993560791000,28.2912292480468750,82,276,104,89,61,11666,2147041792,2147657170,2147464649,2147439625,2149347830,2151388480,2152991552,2147546486,2109,-2,9,20236
1361469506,5805,88.9000015258789000,22.0254993438720700,36.6043014526367200,251.5108032226562500,22.8443908691406250,22.0230007171630860,28.2763500213623050,83,283,103,87,61,11660,2147060315,2147681545,2147498084,2147441920,2149766884,2152064457,2153754761,2147623744,2090,-1,9,13497
1361469561,5805,85.6200027465820300,22.0263004302978500,36.6016998291015600,251.6546936035156200,22.8124294281005860,22.0239791870117200,28.2698802947998050,83,293,103,88,63,11653,2147079488,2147709659,2147527588,2147446820,2150257865,2152817764,2154574217,2147703542,2271,-1,9,24732
1361469616,5802,82.3399963378906200,22.0275001525878900,36.6018981933593750,251.9322967529297000,22.7419109344482420,22.0261402130126950,28.2571601867675780,83,277,103,90,61,11642,2147087835,2147720384,2147532571,2147444534,2150496201,2153028726,2154686966,2147728256,2261,-1,9,12576
1361469671,5803,79.0400009155273400,22.0291996002197270,36.6017990112304700,252.0659942626953000,22.7150707244873050,22.0269699096679700,28.2510890960693360,83,280,105,89,61,11641,2147116288,2147753398,2147582235,2147450944,2151211318,2154125092,2155884041,2147856987,2221,-2,9,2276
1361469726,5804,75.6100006103515600,22.0349006652832030,36.6018981933593750,252.1707000732422000,22.5193500518798830,22.0329704284667970,28.2442893981933600,83,278,104,87,62,11650,2147157184,2147807542,2147650706,2147453705,2152275602,2155738404,2157626925,2148041197,2097,-1,9,55525
1361469802,5805,71.2500000000000000,22.0445003509521500,36.6036987304687500,252.3507995605468800,22.2099494934082030,22.0424594879150400,28.2325496673584000,84,282,103,88,62,11645,2147230500,2147904740,2147766482,2147462153,2154129764,2158561152,2160658057,2148372416,2236,-1,9,32631
1361469857,5804,68.7600021362304700,22.0473995208740230,36.6040000915527340,252.4777069091797000,22.1227207183837900,22.0451297760009770,28.2261199951171880,85,280,104,89,61,11647,2147280036,2147969408,2147846134,2147470464,2155405056,2160487076,2162721179,2148604662,2470,-2,9,18980
1361469912,5806,66.4100036621093800,22.0547008514404300,36.6072006225585940,252.3408966064453000,21.8408508300781250,22.0537796020507800,28.2284908294677730,84,292,105,87,62,11636,2147302116,2147988123,2147868918,2147474633,2155890468,2160967204,2163003126,2148669275,2716,-1,9,56337
1361469967,5809,64.1900024414062500,22.0569992065429700,36.6076011657714840,252.3569946289062500,21.6272392272949220,22.0603294372558600,28.2250404357910160,83,287,103,88,63,11645,2147388955,2148105590,2148013174,2147487725,2158058349,2164259922,2166529179,2149074706,2878,-2,9,45959
1361470022,5804,62.0800018310546900,22.0618000030517580,36.6086006164550800,252.3544006347656200,21.4205207824707030,22.0666694641113280,28.2226009368896500,84,283,104,88,61,11638,2147331858,2148018496,2147888685,2147480374,2156629531,2161532416,2163119698,2148763474,3072,-2,9,32943
1361470077,5804,60.0699996948242200,22.0888996124267580,36.6114997863769500,252.6161956787109400,20.7665004730224600,22.0867290496826170,28.2033100128173830,82,283,105,88,62,11649,2147454409,2148181193,2148116562,2147502345,2159687378,2166145764,2168078290,2149349888,3450,-2,9,44983
1361470135,5806,58.1300010681152340,22.0897998809814450,36.6136016845703100,252.7319946289062500,20.6919593811035160,22.0890197753906250,28.1974201202392580,82,270,104,86,59,11646,2147481856,2148205458,2148142738,2147513161,2160443894,2166906770,2168543213,2149466450,36,-1,9,64853
1361470202,5806,55.8400001525878900,22.0902004241943360,36.6141014099121100,252.9785003662109400,20.6243896484375000,22.0910892486572270,28.1860809326171880,82,273,103,87,61,11649,2147591131,2148349659,2148321627,2147540580,2163183862,2170693668,2172296667,2149961892,150,-2,9,33365
1361470344,5805,51.9700012207031250,22.0997009277343750,36.6152000427246100,253.2947998046875000,20.3114490509033200,22.1006908416748050,28.1686592102050780,81,271,102,86,61,11627,2147649088,2148385024,2148309686,2147531446,2164637787,2172061376,2173059894,2150196425,3315,-1,9,48445
1361470379,5806,50.8600006103515600,22.1009006500244140,36.6148986816406250,253.4474029541015600,20.3101692199707030,22.1007308959960940,28.1622200012207030,80,274,103,89,62,11632,2147614290,2148334281,2148238738,2147527424,2163872621,2170566454,2171147072,2150013138,3391,-2,9,10225
1361470457,5803,47.9599990844726560,22.1063995361328120,36.6160011291503900,253.6535949707031200,20.1265506744384770,22.1063709259033200,28.1512298583984380,81,273,102,87,61,11629,2147725101,2148445129,2148367049,2147556443,2166535798,2173700388,2173875419,2150516827,3539,-2,9,10155
1361470490,5808,46.2500000000000000,22.1070995330810550,36.6162986755371100,253.7487945556640600,20.0952796936035160,22.1073303222656250,28.1467990875244140,81,280,104,87,62,11633,2147768054,2148488082,2148404873,2147573632,2167669184,2174906276,2174760877,2150713837,42,-1,9,65010
1361470523,5805,44.4399986267089840,22.1095008850097660,36.6169013977050800,253.6775970458984400,19.9810009002685550,22.1108303070068360,28.1484394073486330,79,279,105,88,63,11629,2148028041,2148810624,2148803510,2147651245,2174204352,2183811584,2183555373,2152088283,139,-2,9,4595
1361470556,5806,42.6199989318847660,22.1096992492675780,36.6170005798339840,253.9364013671875000,19.9041900634765620,22.1131896972656250,28.1364707946777340,80,282,105,88,60,11626,2148234880,2149055634,2149091675,2147704886,2179677302,2190999844,2190385206,2153252123,110,-2,9,24090
1361470589,5807,40.7999992370605500,22.1117992401123050,36.6160011291503900,254.0055999755859400,19.8656406402587900,22.1143703460693360,28.1330604553222660,79,272,105,88,62,11625,2148370349,2149191744,2149208393,2147707849,2183081270,2195042148,2193900873,2153976886,3520,-2,9,56517
1361470634,5805,38.3600006103515600,22.1131000518798830,36.6162986755371100,254.0939025878906200,19.7971897125244140,22.1164703369140620,28.1284999847412100,79,284,104,88,63,11630,2148554368,2149378148,2149374939,2147724434,2187907657,2200733878,2198855588,2155090020,3346,-2,9,29273
1361470667,5804,36.5600013732910160,22.1145000457763670,36.6169013977050800,254.3480072021484400,19.7189998626709000,22.1188697814941400,28.1168193817138670,80,277,102,85,61,11633,2148743378,2149576704,2149563190,2147749613,2192711478,2206538450,2204075556,2156149650,3193,-1,9,17411
1361470700,5806,34.7000007629394500,22.1149005889892580,36.6162986755371100,254.4273071289062500,19.7012996673584000,22.1194190979003900,28.1133003234863280,78,270,103,88,61,11622,2148762852,2149565321,2149505618,2147745307,2193398875,2206557851,2203336667,2156333750,3058,-2,9,35685
1361470748,5805,32.0299987792968750,22.1149997711181640,36.6166000366210940,254.4559020996093800,19.6872291564941400,22.1198501586914060,28.1118907928466800,78,269,103,88,63,11624,2148843117,2149612708,2149507364,2147755977,2195546130,2207998509,2203784832,2156920438,2931,-1,9,37659
1361470781,5804,30.2000007629394530,22.1161003112792970,36.6162986755371100,254.5167999267578000,19.6821193695068360,22.1200008392334000,28.1090908050537100,78,264,102,88,62,11621,2148840237,2149568603,2149428434,2147762532,2195743716,2207193298,2202337042,2157088576,2871,-1,9,44905
1361470814,5805,28.3400001525878900,22.1161003112792970,36.6165008544921900,254.5863952636718800,19.6339302062988280,22.1214809417724600,28.1057090759277340,78,270,103,88,60,11620,2149396608,2150184640,2150092498,2147886601,2210600694,2225773293,2219607259,2161010102,2930,-1,9,42753
1361470847,5804,26.5200004577636720,22.1156997680664060,36.6165008544921900,254.6170043945312500,19.5965595245361330,22.1226291656494140,28.1038703918457030,79,276,103,86,60,11614,2149628388,2150412937,2150316918,2147960356,2216639542,2232321097,2224903844,2162535515,2998,-2,9,4631
